TimeEDT,TemperatureF,Dew PointF,Humidity,Sea Level PressureIn,VisibilityMPH,Wind Direction,Wind SpeedMPH,Gust SpeedMPH,PrecipitationIn,Events,Conditions,WindDirDegrees,DateUTC
12:51 AM,44.1,34.0,68,29.84,10.0,NW,11.5,-,N/A,,Partly Cloudy,320,2013-03-13 04:51:00
1:51 AM,43.0,34.0,71,29.85,10.0,NW,11.5,-,N/A,,Partly Cloudy,320,2013-03-13 05:51:00
2:51 AM,42.1,33.1,70,29.85,10.0,NNW,10.4,-,N/A,,Clear,330,2013-03-13 06:51:00
3:51 AM,42.1,32.0,67,29.86,10.0,NW,12.7,-,N/A,,Clear,320,2013-03-13 07:51:00
4:51 AM,41.0,32.0,70,29.86,10.0,NW,11.5,-,N/A,,Partly Cloudy,310,2013-03-13 08:51:00
5:51 AM,41.0,32.0,70,29.88,10.0,NW,9.2,-,N/A,,Scattered Clouds,310,2013-03-13 09:51:00
6:51 AM,41.0,28.9,62,29.88,10.0,NW,12.7,-,N/A,,Scattered Clouds,310,2013-03-13 10:51:00
7:51 AM,41.0,28.0,60,29.88,10.0,WNW,9.2,-,N/A,,Scattered Clouds,300,2013-03-13 11:51:00
8:51 AM,42.1,28.9,60,29.88,10.0,WNW,11.5,-,N/A,,Scattered Clouds,300,2013-03-13 12:51:00
9:51 AM,43.0,27.0,53,29.88,10.0,West,12.7,-,N/A,,Scattered Clouds,280,2013-03-13 13:51:00
10:51 AM,43.0,26.1,51,29.87,10.0,NW,10.4,18.4,N/A,,Mostly Cloudy,310,2013-03-13 14:51:00
11:51 AM,46.0,26.1,46,29.86,10.0,NNW,11.5,18.4,N/A,,Scattered Clouds,330,2013-03-13 15:51:00
12:51 PM,48.0,24.1,39,29.85,10.0,West,16.1,19.6,N/A,,Mostly Cloudy,260,2013-03-13 16:51:00
1:51 PM,48.0,23.0,37,29.82,10.0,WNW,15.0,20.7,N/A,,Scattered Clouds,290,2013-03-13 17:51:00
2:51 PM,51.1,21.0,31,29.80,10.0,West,15.0,19.6,N/A,,Mostly Cloudy,260,2013-03-13 18:51:00
3:51 PM,51.1,19.9,29,29.78,10.0,WNW,6.9,-,N/A,,Mostly Cloudy,290,2013-03-13 19:51:00
4:51 PM,50.0,19.0,29,29.79,10.0,West,15.0,25.3,N/A,,Mostly Cloudy,270,2013-03-13 20:51:00
5:51 PM,48.0,19.0,32,29.81,10.0,West,16.1,26.5,N/A,,Mostly Cloudy,270,2013-03-13 21:51:00
6:51 PM,46.9,21.9,37,29.83,10.0,WNW,19.6,26.5,N/A,,Scattered Clouds,290,2013-03-13 22:51:00
7:51 PM,45.0,23.0,42,29.84,10.0,West,13.8,-,N/A,,Scattered Clouds,260,2013-03-13 23:51:00
8:51 PM,44.1,24.1,45,29.85,10.0,WNW,10.4,-,N/A,,Scattered Clouds,290,2013-03-14 00:51:00
9:51 PM,43.0,26.1,51,29.86,10.0,West,11.5,-,N/A,,Scattered Clouds,260,2013-03-14 01:51:00
10:51 PM,43.0,24.1,47,29.87,10.0,West,11.5,-,N/A,,Mostly Cloudy,280,2013-03-14 02:51:00
11:51 PM,41.0,23.0,49,29.88,10.0,West,13.8,23.0,N/A,,Scattered Clouds,280,2013-03-14 03:51:00